Terminal Aerodrome Forecast
Issued by NWS

Home | Current Version | Previous Version | Text Only | Print | Product List | Glossary On
Versions: 1 2 3 4 5 6 7 8 9 10 11 12 13 14 15 16 17 18 19 20
000
FTUS44 KLZK 230800 AAB
TAFADF
TAF AMD
KADF 230819Z 2308/2406 00000KT 1SM BR SKC
      TEMPO 2308/2312 1/2SM FG
     FM231300 27005KT P6SM BKN150
     FM231700 01005KT P6SM SCT050
     FM240000 VRB02KT P6SM SCT030=

USA.gov is the U.S. government's official web portal to all federal, state and local government web resources and services.